Regional Weather Roundup
Issued by NWS

Home | Current Version | Previous Version | Graphics & Text | Print | Product List | Glossary On
Versions: 1 2 3 4 5 6 7 8 9 10 11 12 13 14 15 16 17 18 19 20 21 22 23 24 25 26 27 28 29 30 31 32 33 34 35 36 37 38 39 40 41 42 43 44 45 46 47 48 49 50
000
ASUS43 KIND 071259
RWRIN

WEATHER ROUNDUP FOR INDIANA
NATIONAL WEATHER SERVICE INDIANAPOLIS IN
900 AM EDT TUE JUL 07 2015

NOTE: "FAIR" INDICATES FEW OR NO CLOUDS BELOW 12,000 FEET WITH NO
SIGNIFICANT WEATHER AND/OR OBSTRUCTIONS TO VISIBILITY.

* - STATION DOES NOT REPORT WEATHER SUCH AS PRECIPITATION OR FOG.

+ - STATION NOT QUALITY CONTROLLED BY THE NATIONAL WEATHER SERVICE.
    USE DATA WITH CAUTION...ESPECIALLY DEWPOINT AND RELATIVE
    HUMIDITY OBSERVATIONS.

INZ001>003-010>013-019-020-071400-
NORTHWEST INDIANA

CITY           SKY/WX    TMP DP  RH WIND       PRES   REMARKS
GARY /AIRPORT/ LGT RAIN N/A N/A N/A N14G32    29.97R
KNOX *+        CLOUDY    63  63 100 NW13      29.89R
MONTICELLO +   LGT RAIN  71  71 100 CALM      29.89S
RENSSELAER +   RAIN      70  70 100 W8        29.90R

$$

LMZ046-743>745-071400-
SOUTHERN LAKE MICHIGAN

STATION/POSITION TIME  TEMP    WIND        PRES    WAVE
                       AIR SEA DIR/SP/G            HT
                 (UTC) (F)     (DEG/KT/KT) (MB)    (FT)
BURNS HARBOR     1200   60     360/ 18/ 22 1014.2R
MICHIGAN CITY    1200   60     350/ 19/ 21   N/A
5NW MICH CITY    1200   61 67   10/ 17/ 23   N/A     4

$$

INZ004-005-014>016-021>024-071400-
NORTH CENTRAL INDIANA

CITY           SKY/WX    TMP DP  RH WIND       PRES   REMARKS
ELKHART        LGT RAIN  72  72 100 S5        29.88S
GOSHEN         LGT RAIN  72  71  97 SW5       29.88S FOG
PERU/GRISSOM   LGT RAIN  72  70  94 W15       29.91R FOG
SOUTH BEND     LGT RAIN  65  64  97 NW8       29.90R FOG
WARSAW +       RAIN      70  70 100 CALM      29.89F

$$

INZ006>009-017-018-025>027-071400-
NORTHEAST INDIANA

CITY           SKY/WX    TMP DP  RH WIND       PRES   REMARKS
ANGOLA *+      CLOUDY    70  63  78 W8        29.90S
FORT WAYNE     CLOUDY    77  72  84 SW9       29.90F

$$

INZ028-029-035-036-043>045-051>053-071400-
WEST CENTRAL INDIANA

CITY           SKY/WX    TMP DP  RH WIND       PRES   REMARKS
CRAWFORDSVL +  CLOUDY    73  71  92 SW6       29.91S FOG
GREENCASTLE +  CLOUDY    73  70  88 S7        29.92F HAZE
LAFAYETTE      CLOUDY    71  70  96 S3        29.89S
TERRE HAUTE    CLOUDY    77  73  87 SW8       29.90F

$$

INZ030>032-037>040-046>048-054>057-064-065-071400-
CENTRAL INDIANA

CITY           SKY/WX    TMP DP  RH WIND       PRES   REMARKS
ANDERSON       CLOUDY    75  72  88 S12G17    29.94
COLUMBUS       LGT RAIN  75  72  88 S7        29.96S FOG
FRANKFORT +    LGT RAIN N/A N/A N/A MISG      29.92S
GREENWOOD *+   CLOUDY    77  70  78 S8        29.94F
INDIANAPOLIS   CLOUDY    77  71  82 S12       29.92S
-EAGLE CREEK   CLOUDY    77  72  84 S6        29.91F
KOKOMO *+      CLOUDY    77  72  83 SW12      29.90S
MT COMFORT *+  CLOUDY    75 N/A N/A S8        29.93F
SHELBYVILLE    LGT RAIN  78  73  84 S12       29.94S

$$

INZ033-034-041-042-049-050-058-059-071400-
EAST CENTRAL INDIANA

CITY           SKY/WX    TMP DP  RH WIND       PRES   REMARKS
MUNCIE         CLOUDY    77  72  84 SW10      29.92F

$$

INZ060-061-067>069-081>083-085>088-071400-
SOUTHWEST INDIANA

CITY           SKY/WX    TMP DP  RH WIND       PRES   REMARKS
EVANSVILLE     HVY RAIN  73  71  93 S15       29.96F VSB 3/4
HUNTINGBURG *+ CLOUDY    73  70  88 S17G25    29.98R

$$

INZ062-063-066-070>080-084-089>092-071400-
SOUTH CENTRAL AND SOUTHEAST INDIANA

CITY           SKY/WX    TMP DP  RH WIND       PRES   REMARKS
BLOOMINGTON    LGT RAIN  76  72  87 S8        29.94F
MADISON *+     CLOUDY    73  70  88 S8        30.01F
SEYMOUR +      CLOUDY    75  73  94 S8        29.97R

$$



USA.gov is the U.S. government's official web portal to all federal, state and local government web resources and services.